Tracking 30918 objects as of 2-Jul-2025
HD Live streaming from Space Station
objects crossing your sky now

STARLINK-31366

Track STARLINK-31366 now!
10-day predictions
STARLINK-31366 is classified as:


NORAD ID: 59403
Int'l Code: 2024-064F
Perigee: 489.1 km
Apogee: 491.4 km
Inclination: 43.0 °
Period: 94.3 minutes
Semi major axis: 6861 km
RCS: Unknown
Launch date: April 5, 2024
Source: United States (US)
Launch site: AIR FORCE EASTERN TEST RANGE (AFETR)
Your satellite tracking list
Your tracking list is empty




NASA's NSSDC Master Catalog

Two Line Element Set (TLE):
1 59403U 24064F   25182.85457637 -.00002343  00000-0 -75699-4 0  9994
2 59403  43.0020  32.7681 0001689 271.3352  88.7306 15.27560664 70861
Source of the keplerian elements: AFSPC